RH
72 72 71 70 69 72 74 85 95 73 73 93 77 92 70 73 53 52 47 50 50 50 50 53 51 55 52 42 43 52 55 69 95 92 59 51 67 68 65 88 82 74 76 57
72 72 72 72 68 67 81 78 69 74 77 91 69 63 56 55 52 52 46 48 49 46 49 54 52 54 50 49 50 54 52 81 95 83 70 59 68 56 56 59 79 86 86 59
72 72 74 72 68 67 81 77 93 79 76 63 65 63 55 60 66 52 46 46 45 50 50 45 56 57 58 50 49 60 56 62 83 89 83 73 80 63 59 72 93 68 62 51
73 73 74 72 70 70 79 67 85 72 97 72 67 64 62 57 62 57 49 51 47 45 52 49 53 56 58 55 62 56 58 92 84 59 59 75 74 66 62 79 70 77 50 40
72 73 74 73 73 70 67 82 91 75 71 62 63 72 63 62 58 59 51 55 46 45 48 45 52 52 54 57 57 59 62 95 90 86 61 68 80 65 57 61 61 59 53 48
72 72 74 75 72 66 58 61 65 85 68 62 63 70 67 63 66 63 56 60 59 53 66 57 50 45 42 49 57 61 67 94 94 89 65 71 86 70 63 59 56 56 64 45
72 72 74 76 74 70 64 69 83 73 68 55 63 62 62 65 67 72 60 61 62 59 47 47 48 51 49 47 52 49 66 84 95 96 86 96 61 52 51 54 51 51 46 43
74 75 74 75 76 72 69 68 73 68 60 39 46 52 56 62 60 68 67 70 68 54 62 66 62 66 60 52 56 55 51 71 91 96 92 63 51 56 57 57 57 45 50 44
76 76 75 77 74 70 72 76 77 69 68 51 43 49 43 73 71 62 69 69 69 72 80 72 77 84 59 72 69 61 52 55 70 76 86 81 67 52 50 52 85 52 47 49
75 76 73 74 74 76 81 81 77 77 70 48 51 61 76 62 72 78 66 70 77 78 83 76 77 75 52 66 61 74 78 76 88 81 73 64 61 58 55 89 78 52 47 50
74 75 77 76 75 74 86 82 75 80 74 65 57 48 54 54 51 68 65 77 78 78 86 85 78 72 58 59 53 66 76 81 79 73 79 85 62 66 79 66 61 60 60 64
74 76 76 73 73 75 82 91 69 67 89 71 64 59 56 56 54 62 62 71 74 93 96 87 77 72 60 62 72 54 68 61 67 62 65 51 49 57 59 59 61 66 66 64
75 74 75 73 74 72 86 97 87 88 93 78 72 62 54 51 57 55 66 62 73 79 86 97 96 91 68 74 67 62 60 52 65 58 53 52 47 54 57 62 65 63 62 62
75 72 76 77 77 77 70 86 81 88 90 92 72 52 59 50 51 58 60 57 54 63 85 95 98 90 65 72 64 66 58 57 63 65 57 69 54 52 55 61 63 65 65 68
76 76 76 76 78 73 81 84 86 86 94 89 87 70 56 48 53 58 57 59 68 82 93 91 92 97 89 74 76 78 66 68 76 73 51 52 54 52 56 66 68 65 70 76
78 78 79 79 71 74 87 91 90 81 88 98 91 72 63 55 56 60 62 70 72 80 83 86 86 82 96 99 79 56 48 50 50 57 60 63 64 65 65 67 66 66 70 69
79 79 80 75 70 89 90 90 90 81 88 92 92 91 61 54 67 75 77 71 80 78 83 83 82 75 92 99 93 61 44 42 52 62 65 72 68 75 68 66 64 67 70 68
80 79 74 64 76 80 90 86 80 84 98 96 97 93 84 71 86 88 75 80 85 92 87 81 79 75 77 93 81 76 69 54 62 65 63 66 62 60 65 71 70 74 75 71
78 67 67 87 87 83 91 75 79 95 99 98 95 98 98 94 98 97 87 75 88 77 88 80 75 79 93 76 59 81 80 68 68 70 65 68 68 74 81 83 82 83 80 77
73 70 73 93 81 69 73 96 99 100 100 100 96 97 97 96 99 99 96 95 93 98 84 81 83 81 60 64 81 76 69 68 70 79 89 94 94 85 85 88 87 85 85 84
83 82 86 82 71 88 87 97 99 99 97 94 90 96 98 85 100 99 98 99 99 99 96 90 99 90 83 79 73 68 64 65 68 70 71 72 76 87 92 92 86 79 75 78
92 88 80 79 81 96 96 98 98 95 98 94 99 91 88 88 96 99 99 99 100 99 99 100 99 99 89 81 76 74 70 68 69 67 69 73 79 90 93 92 88 86 81 68
88 89 97 95 96 91 87 95 92 96 98 98 95 93 84 87 98 99 100 100 98 97 100 98 99 92 79 75 73 73 70 69 68 73 72 71 78 90 91 92 90 90 88 83
97 94 73 92 94 93 94 95 98 98 98 95 91 94 92 87 98 99 100 98 99 99 99 96 99 89 84 80 74 73 77 76 77 79 77 79 80 82 80 84 87 92 93 95
98 95 88 94 90 96 97 99 98 96 96 98 91 94 91 96 99 92 99 98 98 97 96 100 97 87 82 81 76 78 76 77 80 73 75 78 77 77 78 76 75 73 82 88
98 98 98 87 95 97 97 98 98 97 94 97 97 98 99 96 99 99 99 99 99 100 100 99 92 83 70 74 78 69 59 60 68 73 71 72 75 77 78 75 79 77 75 86
97 98 92 95 97 96 94 74 78 84 94 98 90 95 96 97 99 98 99 100 100 100 99 99 93 86 72 65 73 65 57 56 62 65 72 78 76 60 54 58 66 84 85 79
Wind_Speed
20 21 24 26 28 28 8 4 1 4 6 2 1 2 3 2 1 3 1 3 5 3 3 1 4 7 6 4 4 3 3 5 3 2 5 3 6 5 2 2 4 1 3 3
20 21 24 26 27 23 5 5 3 4 4 2 3 2 3 2 2 1 2 1 3 4 0 1 4 6 1 3 4 2 5 3 4 2 4 4 5 6 8 3 3 3 3 3
20 21 23 26 28 22 3 3 3 1 4 2 5 4 5 4 1 2 2 1 2 2 2 3 3 5 2 2 4 4 3 3 3 4 2 5 5 8 8 5 3 3 4 5
18 20 22 25 28 26 2 3 2 2 4 4 6 3 3 1 2 3 2 4 5 4 3 3 3 6 5 3 3 1 2 3 3 1 4 4 2 5 11 8 6 5 2 7
16 18 20 23 27 29 3 4 3 4 5 4 5 4 3 5 4 4 3 3 1 2 3 4 4 5 4 3 5 3 2 3 3 2 3 2 5 7 7 12 12 11 10 6
16 17 18 19 22 18 5 4 3 2 5 3 3 4 6 4 7 3 3 7 5 2 6 8 7 4 2 4 5 5 5 4 2 1 3 3 7 14 16 10 7 13 12 7
14 17 16 16 17 16 4 2 3 3 3 3 5 5 4 5 5 4 6 6 4 2 4 4 2 2 3 5 3 4 4 4 3 0 2 2 5 3 6 16 11 9 10 7
13 15 16 15 13 12 3 4 3 4 4 7 6 11 6 6 5 3 3 6 5 5 5 0 2 2 3 4 3 4 3 4 2 2 4 8 5 4 4 9 11 13 11 7
12 12 14 13 16 12 4 3 4 2 3 5 7 7 7 4 7 2 3 3 4 3 2 2 3 4 5 4 5 3 4 3 2 3 3 4 3 4 0 4 4 5 12 9
10 9 10 10 13 12 5 1 3 3 2 1 5 4 4 5 4 4 3 4 1 2 2 2 2 3 2 4 5 5 3 3 4 4 4 7 5 6 3 1 1 4 8 6
8 9 7 11 12 10 4 1 2 3 3 6 4 3 4 4 2 4 5 3 2 2 3 2 3 3 5 2 4 7 7 6 4 4 4 7 6 4 1 3 5 5 5 4
8 9 7 10 10 7 5 1 1 0 3 4 5 8 10 8 5 3 4 4 4 4 4 3 3 2 2 3 4 6 5 6 5 8 6 4 5 3 4 3 4 3 5 5
7 7 8 11 9 11 8 1 2 3 3 5 2 1 4 1 4 5 2 1 4 4 2 3 4 4 2 4 6 5 4 3 3 2 4 4 7 5 5 4 5 5 6 6
6 7 8 10 11 11 8 2 2 1 2 3 1 3 1 2 3 3 7 6 5 3 2 2 3 3 4 4 5 2 5 7 5 4 6 1 4 8 9 7 6 4 4 4
6 8 8 10 11 11 4 2 3 3 1 3 5 10 1 4 4 5 5 5 4 1 1 3 4 4 5 5 3 5 4 5 5 5 7 6 3 7 8 8 6 5 2 2
6 8 10 9 10 8 2 2 2 2 1 2 3 2 2 1 2 3 4 2 3 2 2 3 4 5 0 5 8 11 8 7 8 6 4 7 7 8 6 4 5 3 1 3
8 10 9 9 7 2 2 2 2 3 2 1 3 4 1 1 1 1 1 2 2 2 2 4 4 3 2 4 5 7 12 9 7 7 7 4 4 4 6 4 3 3 4 5
10 9 10 2 4 5 3 3 2 2 1 1 2 3 2 2 1 2 3 2 2 4 4 3 3 4 6 6 7 8 16 5 8 8 8 5 6 5 4 2 2 4 5 5
9 8 1 1 1 2 2 2 2 2 2 2 1 3 4 1 2 1 2 3 3 3 4 4 4 4 7 8 12 4 16 2 5 8 6 3 4 5 3 2 4 4 5 5
7 3 2 1 1 3 4 2 1 0 1 0 2 1 3 1 2 3 2 3 4 4 6 4 5 7 12 7 4 6 3 7 5 5 2 2 1 2 4 4 4 4 5 6
2 2 1 2 2 1 1 1 1 1 2 2 2 3 4 1 3 3 3 2 3 3 3 3 3 3 1 4 5 4 6 5 4 4 4 5 5 3 3 4 5 5 6 6
2 1 1 2 1 1 2 1 1 1 2 1 2 3 4 3 3 3 4 4 2 4 2 3 3 2 2 3 4 5 3 1 2 2 4 5 5 4 2 3 4 5 5 5
3 1 1 1 2 5 4 3 3 3 2 2 3 5 3 4 4 4 3 4 3 1 3 2 1 1 1 3 3 3 2 2 5 5 3 5 4 4 4 4 5 6 4 4
1 2 4 3 1 2 2 2 2 1 1 4 5 4 3 3 4 3 4 2 2 3 2 2 3 2 2 3 3 3 4 5 4 4 4 5 5 4 5 5 5 4 5 4
2 2 3 3 2 0 1 2 1 2 1 2 4 3 2 3 5 3 4 3 3 1 2 2 3 1 1 2 2 4 4 4 4 4 4 4 5 5 4 4 5 5 5 5
1 2 1 1 2 2 1 2 2 2 1 1 1 3 3 4 4 4 4 4 2 2 2 3 3 2 3 1 3 4 3 3 3 4 4 4 4 4 4 3 5 4 5 5
3 3 2 1 1 3 1 1 1 1 2 1 1 4 3 5 4 4 3 3 3 4 3 2 4 1 2 1 2 3 2 3 3 3 4 3 4 3 3 4 5 5 5 4
Wind_Direction
349 352 350 349 349 347 347 303 290 167 176 256 182 100 158 242 16 173 274 305 334 191 179 319 75 86 57 57 187 79 2 96 134 165 159 149 221 207 277 142 238 237 168 285
353 353 351 347 350 354 319 306 298 169 226 353 104 159 151 273 232 346 322 88 320 320 320 92 90 89 60 342 32 85 167 125 105 156 165 179 214 204 183 103 8 211 124 229
355 354 352 350 349 349 314 310 344 32 216 232 308 184 171 184 53 288 299 41 275 225 161 307 130 118 132 78 68 348 334 157 131 160 162 131 188 201 195 145 141 198 217 142
3 2 356 355 349 346 301 5 57 7 317 46 343 346 354 278 144 216 252 205 275 243 155 155 158 102 145 171 158 191 335 118 89 19 84 64 247 208 193 193 214 165 276 208
1 2 0 359 357 340 81 10 357 335 287 302 267 144 90 16 36 347 114 288 94 283 327 20 151 159 185 176 151 187 96 144 90 302 169 238 243 255 235 205 218 256 277 290
4 360 2 6 9 357 26 353 323 295 282 306 275 32 29 30 353 108 36 338 11 308 23 352 342 45 108 111 157 191 140 113 118 192 120 259 286 223 215 207 190 204 219 213
6 2 1 6 17 13 14 24 289 302 333 343 44 10 343 339 351 322 332 5 1 358 268 228 263 40 56 138 152 171 149 127 99 320 3 260 226 51 219 213 209 203 224 213
3 2 1 8 1 7 16 351 347 357 312 342 22 357 329 306 234 221 332 53 356 324 314 274 141 158 197 203 174 226 191 147 151 160 199 278 223 189 173 173 233 209 202 216
359 0 8 26 22 13 345 44 307 318 334 40 341 321 297 339 349 264 105 105 336 305 277 251 208 209 216 151 156 287 235 268 203 196 251 265 103 138 162 110 266 214 178 193
353 1 6 1 359 7 347 36 350 296 317 15 359 12 337 342 351 286 326 2 280 3 277 276 250 273 38 183 191 169 184 223 216 236 268 298 143 138 140 172 236 67 129 162
342 346 351 349 354 348 347 3 24 350 310 294 294 309 314 351 313 325 2 302 200 256 256 230 229 246 205 275 184 167 171 172 188 198 229 259 123 88 237 142 74 97 98 107
330 352 350 344 2 356 7 321 305 199 253 283 330 284 289 287 307 337 317 342 321 360 304 348 308 268 293 204 248 157 199 195 190 182 213 167 207 55 91 68 128 110 123 115
321 341 325 343 354 350 16 256 257 246 256 278 215 69 38 146 239 239 254 19 357 53 2 321 290 281 328 230 236 166 245 205 192 8 293 210 182 139 119 108 114 118 111 133
325 332 321 344 348 343 353 285 309 255 309 304 329 156 357 260 166 238 247 288 333 337 62 324 292 282 304 265 269 290 194 156 198 253 286 34 234 184 165 138 129 138 141 169
298 313 320 332 344 334 322 39 28 9 326 310 307 307 126 331 175 204 220 223 246 281 278 235 246 303 313 290 291 244 188 170 163 217 227 189 247 183 129 137 156 122 97 316
293 309 317 329 338 341 293 174 53 5 25 277 306 3 299 139 143 210 229 236 242 221 228 229 228 217 328 275 247 227 249 212 196 228 94 96 86 88 75 97 113 91 346 285
312 320 340 339 342 325 31 28 356 35 4 298 300 327 156 132 151 167 233 216 215 214 237 233 242 275 214 251 259 298 263 218 168 100 95 100 121 134 101 85 34 356 289 268
315 324 324 338 90 122 123 49 109 33 55 346 341 290 282 57 284 248 173 177 191 223 236 257 238 233 210 246 242 315 296 104 112 104 71 92 110 112 107 71 354 318 305 294
315 321 323 154 340 61 75 82 350 53 2 356 348 330 331 122 260 261 219 216 231 226 228 231 211 232 226 234 224 48 308 90 160 104 98 108 100 79 56 35 358 333 320 330
311 274 233 104 14 319 301 114 115 39 67 326 272 298 276 319 268 250 247 183 232 229 222 162 221 250 239 222 165 108 342 37 59 106 140 74 40 94 46 15 351 319 301 301
352 13 17 338 316 243 177 12 320 109 253 180 243 251 287 238 250 275 218 241 237 258 155 229 229 250 123 144 115 99 69 59 50 52 82 85 95 78 31 344 346 333 341 323
329 303 238 274 285 167 71 21 291 277 337 305 302 314 281 284 253 251 230 247 206 263 151 251 262 26 328 85 87 66 67 54 113 54 84 73 82 73 55 12 348 340 327 345
250 199 7 54 278 22 79 357 326 336 360 15 310 318 287 307 250 259 268 255 241 175 228 281 4 352 39 77 97 79 51 43 68 55 39 62 68 68 53 22 5 334 341 4
311 39 339 139 237 217 178 177 176 257 291 316 309 273 275 309 276 279 270 285 285 281 298 318 333 326 112 72 56 102 69 67 85 71 60 59 49 42 48 27 356 332 338 347
283 76 228 216 227 8 225 181 83 238 250 299 306 273 245 265 281 257 290 261 262 268 319 8 331 320 119 117 93 93 84 75 65 46 60 58 46 41 47 28 5 354 343 6
304 249 321 197 37 268 290 236 249 191 246 253 190 282 281 268 303 274 253 289 290 44 291 303 314 64 352 87 81 78 73 66 73 62 45 49 37 26 2 24 27 354 357 357
291 274 255 327 284 227 198 207 298 54 36 70 15 303 286 304 268 265 281 325 351 326 298 267 346 235 185 155 118 120 89 74 55 55 46 27 2 354 30 17 351 333 337 343